Regional Weather Roundup
Issued by NWS

Home | Current Version | Previous Version | Graphics & Text | Print | Product List | Glossary On
Versions: 1 2 3 4 5 6 7 8 9 10 11 12 13 14 15 16 17 18 19 20 21 22 23 24 25 26 27 28 29 30 31 32 33 34 35 36 37 38 39 40 41 42 43 44 45 46 47 48 49 50
000
ASUS43 KMPX 210301
RWRMN
WEATHER ROUNDUP FOR MINNESOTA
NATIONAL WEATHER SERVICE TWIN CITIES/CHANHASSEN MN
900 PM CST MON FEB 20 2017


NOTE: "FAIR" INDICATES FEW OR NO CLOUDS BELOW 12,000 FEET WITH NO
SIGNIFICANT WEATHER AND/OR OBSTRUCTIONS TO VISIBILITY. N/A MEANS
CURRENT SKY AND/OR WEATHER CONDITIONS ARE NOT AVAILABLE.

MNZ060>063-068>070-210400-
   Twin Cities Metro

CITY           SKY/WX    TMP DP  RH WIND       PRES   REMARKS
TWIN CITIES    CLOUDY    53  48  83 W21G30    29.71R
ST PAUL        CLOUDY    53  52  96 SW13      29.70R
CRYSTAL        CLOUDY   N/A N/A N/A W20G33    29.71R
LAKEVILLE      CLOUDY    46  46 100 W16G22    29.74R
EDEN PRAIRIE   CLOUDY    47  44  90 W15G28    29.74R
SOUTH ST PAUL  CLOUDY    53  52  98 SW12G20   29.70R
LAKE ELMO      DRIZZLE   54  52  94 SW12      29.70R
$$
MNZ001>005-007-008-013>017-022>024-027-028-210400-
   Northwest Minnesota

CITY           SKY/WX    TMP DP  RH WIND       PRES   REMARKS
BEMIDJI        CLOUDY    33  33  98 W15       29.68R WCI  23
HALLOCK        CLEAR     32  30  93 W8        29.68R WCI  25
ROSEAU         CLOUDY    34  30  86 W13       29.64S WCI  25
WARROAD        CLOUDY    34  28  80 W10G17    29.62S WCI  26
THIEF RVR FALL CLEAR     32  31  96 W9        29.70R WCI  24
CROOKSTON      CLEAR     32  32 100 SW8       29.73R FOG     WCI  25
FOSSTON        CLOUDY    32  32 100 SW8       29.71S FOG     WCI  25
DETROIT LAKES  CLOUDY    34  34 100 W7        29.76R WCI  28
MOORHEAD       CLEAR     34  32  93 SW3       29.77R FOG
PARK RAPIDS    CLOUDY    35  32  88 W10       29.70R WCI  27
MAHNOMEN       CLOUDY    33  33  98 W7        29.73S WCI  27
$$
MNZ006-009>011-018-025>026-210400-
   North Central Minnesota

CITY           SKY/WX    TMP DP  RH WIND       PRES   REMARKS
BAUDETTE       CLOUDY    35  32  88 W10       29.61R WCI  27
FLAG ISLAND    CLOUDY    34  32  93 W18G30    29.59R WCI  23
INTL FALLS     LGT RAIN  40  38  93 W14G23    29.55R
WASKISH        CLOUDY    34  34 100 W12       29.65R WCI  25
BIG FORK       LGT RAIN  39  37  93 W7        29.59
LONGVILLE      CLOUDY    37  37 100 W9G17     29.66R
GRAND RAPIDS   CLOUDY    41  39  93 W16G24    29.64R
CRANE LAKE     LGT RAIN  41  39  93 S3        29.57R
ORR            DRIZZLE   41  39  93 CALM      29.54R
COOK           RAIN      43  41  93 SW8       29.57R
WALKER         CLOUDY    35  33  95 W15G23    29.67S WCI  25
$$
MNZ012-019>021-037-210400-
   Northeast Minnesota

CITY           SKY/WX    TMP DP  RH WIND       PRES   REMARKS
DULUTH         LGT RAIN  42  42 100 S9        29.59F VSB 1/4
ELY            DRIZZLE   43  43 100 SW6       29.55F
HIBBING        LGT RAIN  40 N/A N/A S5        29.58R
EVELETH        HVY RAIN  42  42  97 SW6       29.59R
DULUTH HARBOR  RAIN      36  36 100 CALM      29.62S VSB 1
TWO HARBORS    HAZE      43  37  81 CALM      29.59S VSB 1/4
SILVER BAY     DRZL/FOG  39  37  93 CALM      29.57F VSB 1/2
GRAND MARAIS     N/A     40  39  97 CALM      29.62F
G MARAIS ARPRT LGT RAIN  39  36  87 SE3       29.60S VSB 1/4
$$
MNZ029>031-032-039>041-046>048-054>057-064-210400-
   West Central Minnesota

CITY           SKY/WX    TMP DP  RH WIND       PRES   REMARKS
FERGUS FALLS   CLEAR     32  32 100 W5        29.82R FOG     WCI  27
WHEATON        CLEAR     36  34  93 SW5       29.82R
MORRIS         CLEAR     34  34 100 W5        29.80R FOG     WCI  30
ALEXANDRIA     CLOUDY    37  36  96 NW14      29.77S
ELBOW LAKE     FAIR      33  33 100 NW8       29.79R FOG     WCI  26
WADENA         CLOUDY    36  36 100 W10G18    29.73S
GLENWOOD       CLOUDY    37  36  93 W13G20    29.79R
APPLETON       CLEAR     36  34  93 SW3       29.82R FOG
BENSON         CLEAR     36  32  87 NW7       29.83R
ORTONVILLE     CLEAR     37  34  87 W6        29.81R
WILLMAR        FAIR      39  39 100 NW8       29.82R
$$
MNZ033>034-036-042>043-049>051-058-059-210400-
   Central Minnesota

CITY           SKY/WX    TMP DP  RH WIND       PRES   REMARKS
ST CLOUD       CLOUDY    41  39  93 W18G28    29.74R
SAUK CENTRE    CLOUDY    37  36  97 W10       29.77S
PAYNESVILLE    CLOUDY    38  38 100 W20G26    29.78R
AITKIN         CLOUDY    45  39  81 W13G18    29.65R
PINE RIVER     CLOUDY    36  36 100 W10G18    29.73R
BRAINERD       CLOUDY    39  37  92 W12G22    29.71R
STAPLES        CLOUDY    36  36 100 W16       29.73R
LONG PRAIRIE   CLOUDY    36  36 100 W16G22    29.76R FOG
LITTLE FALLS   CLOUDY    37  36  93 W15G23    29.74R
LITCHFIELD     CLOUDY    39  39 100 W15G23    29.79R
BUFFALO        CLOUDY    42  38  88 W20G28    29.77R
MAPLE LAKE     CLOUDY    42  41  95 W16G25    29.76R
HUTCHINSON     CLOUDY    41  40  96 W18G29    29.80R
$$
MNZ037-044-045-052-053-210400-
   East Central Minnesota

CITY           SKY/WX    TMP DP  RH WIND       PRES   REMARKS
PRINCETON      CLOUDY    46  45  93 W14G23    29.71R
MORA           CLOUDY    46  45  93 W10       29.67R
CAMBRIDGE      CLOUDY    52  50  93 W20G26    29.66R
RUSH CITY      CLOUDY    50  50 100 SW8       29.65F FOG
MOOSE LAKE     DRIZZLE   46  46 100 SW8       29.60S
HINCKLEY       DRZL/FOG  50  50 100 SW9       29.63S VSB 1
CLOQUET        LGT RAIN  39  37  93 CALM      29.60S VSB 3/4
MCGREGOR       CLOUDY    45  45 100 W8        29.64R
$$
MNZ071>073-080-081-089-090-097-098-210400-
   Southwest Minnesota

CITY           SKY/WX    TMP DP  RH WIND       PRES   REMARKS
MONTEVIDEO     CLEAR     37  37 100 CALM      29.84R
GRANITE FALLS  CLEAR     37  36  96 W5        29.85R FOG
CANBY          CLEAR     43  39  86 NW10      29.84R
MARSHALL       CLEAR     41  38  89 W8        29.84R
REDWOOD FALLS  CLEAR     41  37  86 W10       29.82R
OLIVIA         CLEAR     39  36  87 NW8       29.81S
PIPESTONE      CLEAR     39  36  87 W9        29.86R
WINDOM         CLEAR     43  39  87 W9        29.85R
WORTHINGTON    CLEAR     41  39  93 W9        29.87R
JACKSON        CLEAR     43  37  81 W12G18    29.86R
TRACY          CLEAR     44  41  88 W8        29.84S
SLAYTON        CLEAR     42  39  91 W8        29.86R
$$
MNZ065>067-074>077-082>085-091>093-210400-
   South Central Minnesota

CITY           SKY/WX    TMP DP  RH WIND       PRES   REMARKS
MANKATO          N/A     44  40  85 W18       29.82R
NEW ULM        CLEAR     41  39  93 W12       29.82R
ST JAMES       CLEAR     43  41  93 W10       29.85R
FAIRMONT       CLEAR     46  41  82 W13       29.85R
GLENCOE        CLOUDY    42  42 100 W22       29.78R
FARIBAULT      CLOUDY    48  46  93 W21G28    29.79R FOG
OWATONNA       CLOUDY    48  46  93 W17       29.79R FOG
WASECA         CLOUDY    45  43  93 W21       29.82R
ALBERT LEA     CLOUDY    46  46 100 W9G21     29.82R
$$
MNZ078>079-086>088-094>096-210400-
   Southeast Minnesota

CITY           SKY/WX    TMP DP  RH WIND       PRES   REMARKS
ROCHESTER      CLOUDY    52  52 100 SW18      29.77R
RED WING       CLOUDY    55  52  88 SW10      29.71S
STANTON        CLOUDY    52  48  87 W16G23    29.73R
WINONA         LGT RAIN  55  54  94 SW7       29.78R
AUSTIN         CLOUDY    48  46  93 W15G26    29.81R
PRESTON        CLOUDY    52  51  95 SW13      29.79S FOG
$$
ABBREVIATIONS USED IN REMARKS
   TC - TEMPERATURES IN CELSIUS
  WCI - WIND CHILL INDEX
   HX - HEAT INDEX
  VSB - VISIBILITY
$$



USA.gov is the U.S. government's official web portal to all federal, state and local government web resources and services.